Radiation Dose at Monitoring Post of Fukushima Daini Nuclear Power Station
Date,Time,MP-1(microSv/h),MP-2(microSv/h),MP-3(microSv/h),MP-4(microSv/h),MP-5(microSv/h),MP-6(microSv/h),MP-7(microSv/h),Wind Direction,Wind Velocity(m/s),Rain
2020/12/03,00:00,0.176,0.160,0.259,0.247,0.239,0.141,0.086,west,1.3,No
2020/12/03,00:10,0.177,0.161,0.259,0.246,0.240,0.141,0.085,west-northwest,1.2,No
2020/12/03,00:20,0.178,0.160,0.259,0.246,0.239,0.141,0.086,northwest,1.7,No
2020/12/03,00:30,0.178,0.159,0.261,0.246,0.240,0.141,0.086,west-northwest,2.8,No
2020/12/03,00:40,0.177,0.161,0.260,0.247,0.240,0.141,0.086,northwest,3.2,Yes
2020/12/03,00:50,0.178,0.160,0.259,0.246,0.241,0.141,0.086,north-northwest,3.2,Yes
2020/12/03,01:00,0.178,0.160,0.260,0.245,0.240,0.141,0.085,northwest,3.1,Yes
2020/12/03,01:10,0.177,0.160,0.260,0.247,0.240,0.141,0.086,northwest,3.0,No
2020/12/03,01:20,0.178,0.160,0.260,0.246,0.239,0.140,0.086,northwest,3.6,No
2020/12/03,01:30,0.178,0.159,0.259,0.246,0.239,0.141,0.085,northwest,4.6,Yes
2020/12/03,01:40,0.177,0.160,0.260,0.245,0.239,0.141,0.085,northwest,4.8,Yes
2020/12/03,01:50,0.178,0.160,0.261,0.246,0.241,0.144,0.088,northwest,4.1,Yes
2020/12/03,02:00,0.179,0.160,0.260,0.246,0.242,0.143,0.089,northwest,4.5,Yes
2020/12/03,02:10,0.179,0.161,0.262,0.246,0.241,0.144,0.088,northwest,4.7,Yes
2020/12/03,02:20,0.179,0.162,0.262,0.247,0.241,0.143,0.089,north-northwest,4.1,Yes
2020/12/03,02:30,0.180,0.162,0.261,0.249,0.243,0.145,0.090,north-northwest,3.8,Yes
2020/12/03,02:40,0.181,0.163,0.262,0.246,0.242,0.146,0.089,north-northwest,4.3,No
2020/12/03,02:50,0.180,0.163,0.263,0.250,0.243,0.145,0.089,north-northwest,3.6,No
2020/12/03,03:00,0.180,0.163,0.263,0.249,0.242,0.145,0.090,north-northwest,3.9,Yes
2020/12/03,03:10,0.182,0.163,0.263,0.248,0.242,0.146,0.091,north-northwest,4.1,Yes
2020/12/03,03:20,0.182,0.164,0.263,0.250,0.244,0.147,0.091,northwest,4.7,Yes
2020/12/03,03:30,0.181,0.165,0.263,0.250,0.244,0.146,0.091,northwest,5.3,Yes
2020/12/03,03:40,0.183,0.164,0.264,0.250,0.244,0.146,0.092,northwest,5.3,Yes
2020/12/03,03:50,0.183,0.165,0.263,0.251,0.244,0.147,0.093,northwest,5.3,Yes
2020/12/03,04:00,0.185,0.165,0.264,0.250,0.245,0.147,0.093,northwest,5.1,Yes
2020/12/03,04:10,0.183,0.165,0.265,0.250,0.244,0.146,0.092,northwest,5.2,Yes
2020/12/03,04:20,0.182,0.165,0.263,0.250,0.243,0.146,0.091,northwest,4.9,Yes
2020/12/03,04:30,0.183,0.166,0.262,0.249,0.243,0.147,0.092,northwest,5.1,Yes
2020/12/03,04:40,0.183,0.165,0.262,0.249,0.242,0.146,0.091,northwest,5.6,Yes
2020/12/03,04:50,0.181,0.164,0.261,0.249,0.242,0.145,0.090,northwest,5.2,No
2020/12/03,05:00,0.182,0.164,0.261,0.248,0.242,0.144,0.091,northwest,5.4,No
2020/12/03,05:10,0.179,0.162,0.260,0.247,0.241,0.143,0.089,northwest,5.2,Yes
2020/12/03,05:20,0.180,0.161,0.260,0.246,0.240,0.142,0.087,northwest,5.2,Yes
2020/12/03,05:30,0.179,0.161,0.259,0.245,0.239,0.142,0.088,northwest,5.5,Yes
2020/12/03,05:40,0.180,0.161,0.259,0.245,0.240,0.142,0.087,north-northwest,5.9,Yes
2020/12/03,05:50,0.178,0.161,0.259,0.245,0.239,0.141,0.087,northwest,4.9,Yes
2020/12/03,06:00,0.176,0.159,0.259,0.245,0.239,0.141,0.085,northwest,5.0,No
2020/12/03,06:10,0.178,0.159,0.259,0.244,0.240,0.140,0.086,north-northwest,5.0,No
2020/12/03,06:20,0.177,0.160,0.259,0.243,0.239,0.141,0.086,northwest,5.1,No
2020/12/03,06:30,0.176,0.159,0.257,0.243,0.238,0.140,0.086,northwest,4.3,No
2020/12/03,06:40,0.175,0.158,0.257,0.243,0.238,0.141,0.086,northwest,4.3,No
2020/12/03,06:50,0.175,0.158,0.257,0.244,0.238,0.139,0.085,northwest,4.1,No
2020/12/03,07:00,0.176,0.158,0.257,0.243,0.238,0.139,0.085,northwest,3.8,No
2020/12/03,07:10,0.175,0.158,0.256,0.242,0.237,0.138,0.084,northwest,2.5,No
2020/12/03,07:20,0.176,0.158,0.257,0.243,0.237,0.139,0.084,northwest,3.5,No
2020/12/03,07:30,0.176,0.157,0.256,0.242,0.238,0.139,0.085,northwest,4.7,No
2020/12/03,07:40,0.175,0.158,0.257,0.242,0.238,0.139,0.085,northwest,3.3,No
2020/12/03,07:50,0.175,0.158,0.256,0.242,0.237,0.139,0.084,northwest,3.4,No
2020/12/03,08:00,0.175,0.158,0.256,0.243,0.238,0.139,0.085,northwest,3.3,No
2020/12/03,08:10,0.176,0.157,0.257,0.243,0.237,0.140,0.084,west,2.2,No
2020/12/03,08:20,0.175,0.158,0.256,0.242,0.239,0.140,0.085,west,2.2,No
2020/12/03,08:30,0.175,0.158,0.256,0.241,0.237,0.138,0.084,west-northwest,2.1,No
2020/12/03,08:40,0.176,0.156,0.257,0.242,0.238,0.138,0.084,west,2.0,No
2020/12/03,08:50,0.175,0.158,0.256,0.241,0.238,0.139,0.085,west-northwest,2.8,No
2020/12/03,09:00,0.175,0.157,0.257,0.242,0.237,0.139,0.084,west-northwest,2.3,No
2020/12/03,09:10,0.176,0.158,0.256,0.242,0.237,0.139,0.084,northwest,2.3,No
2020/12/03,09:20,0.174,0.157,0.257,0.243,0.240,0.139,0.084,northwest,3.0,No
2020/12/03,09:30,0.175,0.158,0.257,0.243,0.237,0.139,0.085,northwest,2.8,No
2020/12/03,09:40,0.176,0.158,0.256,0.243,0.239,0.139,0.085,northwest,2.5,No
2020/12/03,09:50,0.176,0.159,0.257,0.242,0.238,0.139,0.085,northwest,1.8,No
2020/12/03,10:00,0.175,0.158,0.256,0.242,0.238,0.138,0.084,northwest,2.4,No
2020/12/03,10:10,0.175,0.158,0.256,0.243,0.238,0.139,0.084,northwest,1.8,No
2020/12/03,10:20,0.176,0.159,0.258,0.242,0.239,0.138,0.084,west-northwest,1.3,No
2020/12/03,10:30,0.176,0.159,0.255,0.243,0.237,0.139,0.085,northwest,2.0,No
2020/12/03,10:40,0.176,0.157,0.256,0.242,0.239,0.139,0.084,north-northwest,1.0,No
2020/12/03,10:50,0.176,0.158,0.257,0.243,0.238,0.139,0.084,north,1.7,No
2020/12/03,11:00,0.175,0.158,0.256,0.242,0.239,0.139,0.084,north,2.1,No
2020/12/03,11:10,0.175,0.157,0.257,0.243,0.239,0.139,0.085,north-northwest,2.4,No
2020/12/03,11:20,0.176,0.158,0.257,0.241,0.238,0.139,0.085,north-northwest,3.0,No
2020/12/03,11:30,0.176,0.158,0.257,0.242,0.239,0.140,0.085,northwest,2.2,No
2020/12/03,11:40,0.175,0.158,0.256,0.242,0.238,0.139,0.084,north-northwest,2.8,No
2020/12/03,11:50,0.174,0.158,0.257,0.242,0.239,0.139,0.084,north-northwest,1.7,No
2020/12/03,12:00,0.176,0.158,0.257,0.243,0.238,0.139,0.085,north-northwest,3.7,No
2020/12/03,12:10,0.176,0.158,0.256,0.243,0.239,0.140,0.085,north-northwest,3.6,No
2020/12/03,12:20,0.176,0.159,0.257,0.242,0.240,0.140,0.084,north,2.9,No
2020/12/03,12:30,0.176,0.157,0.257,0.243,0.238,0.139,0.084,north,2.9,No
2020/12/03,12:40,0.174,0.158,0.257,0.243,0.239,0.139,0.084,north-northeast,2.9,No
2020/12/03,12:50,0.176,0.158,0.258,0.243,0.238,0.139,0.084,north,3.2,No
2020/12/03,13:00,0.176,0.158,0.256,0.241,0.238,0.139,0.085,north-northeast,3.5,No
2020/12/03,13:10,0.176,0.158,0.257,0.243,0.239,0.140,0.085,north-northeast,4.3,No
2020/12/03,13:20,0.176,0.158,0.257,0.242,0.237,0.140,0.084,northeast,3.9,No
2020/12/03,13:30,0.176,0.157,0.257,0.242,0.241,0.140,0.084,north-northeast,3.9,No
2020/12/03,13:40,0.176,0.158,0.257,0.243,0.238,0.140,0.085,northeast,4.1,No
2020/12/03,13:50,0.176,0.157,0.258,0.242,0.239,0.138,0.084,northeast,4.5,No
2020/12/03,14:00,0.176,0.158,0.257,0.244,0.238,0.139,0.085,northeast,3.3,No
2020/12/03,14:10,0.175,0.158,0.258,0.244,0.239,0.139,0.085,north-northeast,3.5,No
2020/12/03,14:20,0.176,0.158,0.259,0.244,0.240,0.140,0.084,north,4.4,No
2020/12/03,14:30,0.176,0.158,0.257,0.243,0.239,0.140,0.084,north,4.2,No
2020/12/03,14:40,0.176,0.159,0.258,0.244,0.240,0.139,0.084,north-northwest,5.4,No
2020/12/03,14:50,0.175,0.158,0.257,0.243,0.238,0.140,0.084,north,6.2,No
2020/12/03,15:00,0.175,0.158,0.258,0.244,0.239,0.140,0.084,north,5.9,No
2020/12/03,15:10,0.176,0.159,0.258,0.244,0.240,0.141,0.084,north,4.4,No
2020/12/03,15:20,0.177,0.158,0.259,0.244,0.238,0.141,0.084,north-northwest,3.7,No
2020/12/03,15:30,0.176,0.159,0.257,0.243,0.238,0.140,0.084,north-northwest,2.6,No
2020/12/03,15:40,0.175,0.158,0.257,0.244,0.240,0.140,0.084,north-northwest,3.3,No
2020/12/03,15:50,0.176,0.158,0.258,0.244,0.239,0.140,0.084,north-northwest,3.7,No
2020/12/03,16:00,0.176,0.158,0.259,0.244,0.240,0.140,0.085,north-northwest,3.5,No
2020/12/03,16:10,0.176,0.158,0.259,0.244,0.239,0.140,0.084,north-northwest,3.6,No
2020/12/03,16:20,0.175,0.158,0.259,0.243,0.239,0.140,0.086,north-northwest,4.2,No
2020/12/03,16:30,0.177,0.158,0.258,0.243,0.239,0.141,0.085,north-northwest,4.1,No
2020/12/03,16:40,0.176,0.159,0.259,0.244,0.238,0.140,0.084,north-northwest,4.2,No
2020/12/03,16:50,0.176,0.159,0.258,0.245,0.238,0.141,0.084,north-northwest,4.4,No
2020/12/03,17:00,0.176,0.159,0.259,0.245,0.239,0.140,0.085,north-northwest,4.9,No
2020/12/03,17:10,0.175,0.158,0.258,0.244,0.239,0.140,0.084,north-northwest,4.3,No
2020/12/03,17:20,0.176,0.158,0.259,0.243,0.239,0.140,0.084,north-northwest,4.7,No
2020/12/03,17:30,0.175,0.159,0.258,0.244,0.237,0.140,0.085,north-northwest,4.9,No
2020/12/03,17:40,0.177,0.159,0.256,0.244,0.239,0.140,0.085,north-northwest,4.6,Yes
2020/12/03,17:50,0.177,0.158,0.258,0.244,0.239,0.141,0.085,north-northwest,4.2,No
2020/12/03,18:00,0.176,0.160,0.259,0.244,0.239,0.140,0.084,northwest,4.8,Yes
2020/12/03,18:10,0.177,0.159,0.259,0.245,0.239,0.141,0.085,northwest,4.4,Yes
2020/12/03,18:20,0.177,0.158,0.258,0.244,0.239,0.140,0.085,northwest,3.6,No
2020/12/03,18:30,0.176,0.158,0.257,0.244,0.238,0.141,0.085,north-northwest,4.6,No
2020/12/03,18:40,0.176,0.158,0.259,0.244,0.239,0.141,0.085,north-northwest,4.0,No
2020/12/03,18:50,0.176,0.159,0.258,0.245,0.239,0.140,0.085,north,2.4,No
2020/12/03,19:00,0.176,0.159,0.259,0.245,0.239,0.140,0.085,north-northwest,1.7,No
2020/12/03,19:10,0.177,0.159,0.259,0.245,0.239,0.141,0.085,northwest,1.6,No
2020/12/03,19:20,0.176,0.158,0.259,0.244,0.239,0.141,0.085,northwest,2.1,No
2020/12/03,19:30,0.177,0.158,0.257,0.246,0.240,0.141,0.086,north-northwest,4.8,No
2020/12/03,19:40,0.178,0.158,0.259,0.245,0.239,0.140,0.085,north-northwest,6.3,No
2020/12/03,19:50,0.176,0.159,0.259,0.244,0.239,0.140,0.086,north-northwest,6.8,No
2020/12/03,20:00,0.176,0.159,0.259,0.244,0.239,0.141,0.085,north-northwest,7.7,No
2020/12/03,20:10,0.177,0.159,0.258,0.245,0.240,0.141,0.085,north-northwest,8.1,No
2020/12/03,20:20,0.176,0.159,0.259,0.245,0.239,0.140,0.086,north-northwest,8.1,No
2020/12/03,20:30,0.177,0.159,0.259,0.244,0.238,0.141,0.086,north-northwest,8.5,No
2020/12/03,20:40,0.177,0.159,0.259,0.244,0.239,0.141,0.086,north-northwest,8.7,Yes
2020/12/03,20:50,0.178,0.159,0.259,0.245,0.240,0.140,0.085,northwest,7.5,No
2020/12/03,21:00,0.177,0.159,0.259,0.245,0.240,0.140,0.086,north-northwest,8.2,No
2020/12/03,21:10,0.178,0.160,0.258,0.244,0.239,0.140,0.086,north-northwest,8.5,No
2020/12/03,21:20,0.176,0.159,0.259,0.244,0.240,0.140,0.086,north-northwest,9.3,No
2020/12/03,21:30,0.177,0.158,0.259,0.245,0.241,0.141,0.086,north-northwest,9.5,No
2020/12/03,21:40,0.177,0.158,0.258,0.244,0.240,0.140,0.086,northwest,9.5,No
2020/12/03,21:50,0.177,0.159,0.258,0.245,0.239,0.140,0.086,north-northwest,10.4,No
2020/12/03,22:00,0.176,0.159,0.259,0.245,0.240,0.140,0.085,north-northwest,11.2,No
2020/12/03,22:10,0.177,0.160,0.259,0.244,0.238,0.141,0.085,north-northwest,9.5,No
2020/12/03,22:20,0.176,0.159,0.259,0.245,0.239,0.140,0.085,north-northwest,9.0,No
2020/12/03,22:30,0.178,0.159,0.258,0.244,0.240,0.141,0.085,north-northwest,10.9,No
2020/12/03,22:40,0.177,0.158,0.258,0.243,0.239,0.141,0.085,north-northwest,11.2,No
2020/12/03,22:50,0.177,0.159,0.259,0.243,0.239,0.141,0.085,northwest,10.7,No
2020/12/03,23:00,0.177,0.159,0.259,0.244,0.239,0.140,0.084,north-northwest,9.6,No
2020/12/03,23:10,0.177,0.159,0.260,0.245,0.239,0.140,0.086,north-northwest,9.6,No
2020/12/03,23:20,0.177,0.159,0.260,0.245,0.240,0.141,0.085,north-northwest,8.6,No
2020/12/03,23:30,0.178,0.158,0.260,0.244,0.241,0.141,0.085,northwest,9.3,No
2020/12/03,23:40,0.177,0.160,0.260,0.246,0.239,0.142,0.085,northwest,9.8,No
2020/12/03,23:50,0.178,0.160,0.260,0.246,0.240,0.141,0.085,northwest,9.2,No
